[[{"header":{"parameterUnit":"m.s-1","parameterCategory":1,"la1":30.2992,"la2":30.254,"lo1":-89.0895,"lo2":-89.0443,"dy":0.0025,"dx":0.0025,"nx":19,"ny":19,"refTime":"2026-04-08T03:00:00:Z","depth":0,"parameterNumber":2,"parameterNumberName":"U-component_of_WINDS"},"data":[0,0,0,-4.486,-4.486,-4.4853,-4.4853,-4.4892,-4.4893,0,0,0,0,0,0,0,0,0,0,0,-4.4891,-4.4892,-4.486,-4.486,-4.4853,-4.4853,-4.4892,-4.4893,0,0,0,0,0,0,0,0,0,0,0,-4.489,-4.4892,-4.4893,-4.486,-4.4853,-4.4853,-4.4892,-4.488,0,0,0,0,0,0,0,0,0,0,-4.4879,-4.4936,-4.4891,-4.4893,-4.4861,-4.4853,-4.4853,-4.4879,-4.4881,-4.4916,0,-4.4955,0,-4.4925,-4.4899,-4.4899,0,0,0,-4.4839,-4.4934,-4.4906,-4.4894,-4.4861,-4.4853,-4.485,-4.488,-4.4882,-4.492,-4.4955,-4.4955,-4.4925,-4.4899,-4.49,-4.5171,-4.5173,0,0,-4.484,-4.4905,-4.4905,-4.4909,-4.4912,-4.4851,-4.485,-4.488,-4.4923,-4.4955,-4.4955,-4.4926,-4.49,-4.4901,-4.5169,-4.5172,0,0,0,-4.4855,-4.4907,-4.4876,-4.4909,-4.4904,-4.4851,-4.4851,-4.4922,-4.4907,-4.4955,-4.4927,-4.49,-4.4901,-4.5166,-4.517,-4.5345,0,0,0,-4.4854,-4.4915,-4.4878,-4.4918,-4.4904,-4.4913,-4.4893,-4.4905,-4.4906,-4.4926,-4.49,-4.4902,-4.5164,-4.5168,-4.5334,-4.5417,0,0,0,-4.4882,-4.4918,-4.4927,-4.4922,-4.4921,-4.491,-4.4896,-4.4903,-4.489,-4.4899,-4.4903,-4.5162,-4.5167,-4.5325,-4.5401,-4.5507,0,0,0,-4.493,-4.5084,-4.4931,-4.5091,-4.4921,-4.5019,-4.4895,-4.4965,-4.4994,-4.4901,-4.5164,-4.517,-4.5322,-4.5392,-4.5497,-4.5607,-4.5659,0,0,-4.516,-4.5114,-4.5203,-4.5066,-4.5207,-4.5014,-4.5181,-4.5146,-4.5088,-4.5147,-4.5153,-4.5338,-4.54,-4.5505,-4.5927,-4.5969,0,0,0,-4.5298,-4.5363,-4.5386,-4.5416,-4.5392,-4.5379,-4.5311,-4.5298,-4.5344,-4.5131,-4.5402,-4.5437,-4.5496,-4.5545,-4.5581,-4.5627,-4.5195,-4.5195,-4.5194,-4.5719,-4.5635,-4.5776,-4.5691,-4.5722,-4.565,-4.5667,-4.5637,-4.5545,-4.561,-4.5627,-4.5894,-4.5954,-4.598,-4.6029,-4.5678,-4.5679,-4.568,-4.568,-4.6049,-4.6127,-4.5998,-4.6089,-4.6,-4.6076,-4.6013,-4.5945,-4.6003,-4.5874,-4.5921,-4.5788,-4.6029,-4.6067,-4.5692,-4.569,-4.5689,-4.5688,-4.5687,-4.6315,-4.6337,-4.6318,-4.6352,-4.6388,-4.6296,-4.6358,-4.6274,-4.6196,-4.6243,-4.6252,-4.6249,-4.6235,-4.6253,-4.6254,-4.6255,-4.6256,-4.6256,-4.6257,-4.6598,-4.657,-4.6632,-4.6619,-4.6626,-4.6626,-4.6556,-4.6561,-4.6546,-4.6481,-4.648,-4.6382,-4.6068,-4.599,-4.6271,-4.6268,-4.6267,-4.6265,-4.6264,-4.6963,-4.6867,-4.6962,-4.697,-4.6947,-4.6989,-4.6881,-4.69,-4.6892,-4.6926,-4.6816,-4.6598,-4.6544,-4.6515,-4.6451,-4.6834,-4.6834,-4.6834,-4.6834,-4.7188,-4.7152,-4.7229,-4.7247,-4.7255,-4.7167,-4.7278,-4.7225,-4.7155,-4.7146,-4.7078,-4.6986,-4.696,-4.6921,-4.6884,-4.6822,-4.7291,-4.7291,-4.7292,-4.7407,-4.7368,-4.7478,-4.7407,-4.7383,-4.7365,-4.7466,-4.7493,-4.7394,-4.7309,-4.7136,-4.7117,-4.6966,-4.6922,-4.6833,-4.6777,-4.6662,0,0]},{"header":{"parameterUnit":"m.s-1","parameterCategory":1,"la1":30.2992,"la2":30.254,"lo1":-89.0895,"lo2":-89.0443,"dy":0.0025,"dx":0.0025,"nx":19,"ny":19,"refTime":"2026-04-08T03:00:00:Z","depth":0,"parameterNumber":3,"parameterNumberName":"V-component_of_WINDS"},"data":[0,0,0,1.0819,1.0819,1.0818,1.0818,1.0806,1.0806,0,0,0,0,0,0,0,0,0,0,0,1.0815,1.0815,1.0819,1.0819,1.0818,1.0818,1.0806,1.0806,0,0,0,0,0,0,0,0,0,0,0,1.0815,1.0815,1.0815,1.0819,1.0818,1.0818,1.0806,1.0811,0,0,0,0,0,0,0,0,0,0,1.0813,1.0806,1.0815,1.0815,1.0819,1.0818,1.0818,1.0811,1.081,1.0803,0,1.0797,0,1.0802,1.0805,1.0805,0,0,0,1.0822,1.0806,1.081,1.0815,1.0819,1.0818,1.0819,1.0811,1.081,1.0803,1.0797,1.0797,1.0802,1.0805,1.0805,1.0759,1.0759,0,0,1.0822,1.0812,1.0811,1.081,1.0811,1.0819,1.0819,1.081,1.0803,1.0797,1.0797,1.0801,1.0805,1.0805,1.076,1.0759,0,0,0,1.082,1.0812,1.0817,1.081,1.081,1.0819,1.0819,1.0804,1.0806,1.0797,1.0801,1.0805,1.0804,1.076,1.076,1.0733,0,0,0,1.0821,1.0811,1.0816,1.081,1.081,1.0807,1.0812,1.0807,1.0806,1.0801,1.0805,1.0804,1.0761,1.076,1.0735,1.0722,0,0,0,1.0817,1.0811,1.0809,1.081,1.0809,1.0808,1.081,1.0807,1.0809,1.0805,1.0804,1.0761,1.076,1.0736,1.0724,1.0707,0,0,0,1.0809,1.0785,1.0809,1.0783,1.0809,1.0792,1.081,1.0798,1.0791,1.0805,1.0761,1.076,1.0737,1.0726,1.0708,1.069,1.0682,0,0,1.0773,1.078,1.0766,1.0787,1.0764,1.0793,1.0766,1.0769,1.0776,1.0764,1.0763,1.0734,1.0724,1.0707,1.0641,1.0634,0,0,0,1.075,1.074,1.0736,1.0731,1.0734,1.0735,1.0744,1.0745,1.0736,1.0769,1.0724,1.0719,1.0709,1.07,1.0695,1.0687,1.0756,1.0756,1.0756,1.0682,1.0696,1.0673,1.0686,1.0681,1.0691,1.0688,1.0691,1.0705,1.0694,1.069,1.0648,1.0638,1.0634,1.0626,1.0682,1.0682,1.0682,1.0682,1.0629,1.0616,1.0637,1.0622,1.0636,1.0623,1.0632,1.0643,1.0632,1.0652,1.0644,1.0664,1.0626,1.062,1.068,1.068,1.0681,1.0681,1.0681,1.0585,1.0581,1.0585,1.0579,1.0573,1.0588,1.0577,1.059,1.0602,1.0594,1.0591,1.0592,1.0593,1.0593,1.0592,1.0592,1.0592,1.0592,1.0592,1.0537,1.0542,1.0533,1.0535,1.0534,1.0534,1.0545,1.0544,1.0546,1.0556,1.0556,1.057,1.0621,1.0633,1.059,1.059,1.059,1.0591,1.0591,1.0476,1.0492,1.0477,1.0476,1.0481,1.0474,1.0492,1.0489,1.0489,1.0484,1.0501,1.0537,1.0544,1.0549,1.0558,1.0498,1.0499,1.0498,1.0498,1.0437,1.0444,1.0432,1.043,1.0429,1.0444,1.0426,1.0435,1.0446,1.0447,1.0458,1.0473,1.0477,1.0482,1.0488,1.0497,1.0423,1.0423,1.0423,1.04,1.0407,1.0389,1.0403,1.0408,1.0411,1.0394,1.039,1.0406,1.042,1.0448,1.0451,1.0475,1.0482,1.0495,1.0504,1.0521,0,0]}]]